FW8442 Weather Reports


time (UTC)temp
C
wind
direction
speed
KPH
gust
KPH
rain 1hr
cm
rain 24hr
cm
rain mn
cm
humidity
%
barometer
mb
20260503220051 15 312 1.6 9.7 0.00 0.00 0.00 33 1010.7
20260503214547 15 234 1.6 14.5 0.00 0.00 0.00 32 1010.9
20260503213047 15 328 1.6 6.4 0.00 0.00 0.00 32 1010.7
20260503211544 15 305 4.8 14.5 0.00 0.00 0.00 33 1010.8
20260503210043 14 25 1.6 8.0 0.00 0.00 0.00 34 1010.7
20260503204552 15 294 1.6 12.9 0.00 0.00 0.00 32 1010.6
20260503203054 15 110 1.6 11.3 0.00 0.00 0.00 33 1010.6
20260503201553 15 287 3.2 11.3 0.00 0.00 0.00 31 1010.6
20260503200056 15 231 1.6 25.7 0.00 0.00 0.00 34 1010.7
20260503194558 15 41 3.2 9.7 0.00 0.00 0.00 32 1010.8
20260503193053 15 34 1.6 11.3 0.00 0.00 0.00 33 1011.0
20260503191553 15 346 3.2 12.9 0.00 0.00 0.00 33 1011.1
20260503190047 15 340 4.8 11.3 0.00 0.00 0.00 33 1011.3
20260503184547 14 347 1.6 11.3 0.00 0.00 0.00 37 1011.3
20260503183049 13 347 1.6 16.1 0.00 0.00 0.00 38 1011.6
20260503181545 12 289 4.8 14.5 0.00 0.00 0.00 39 1011.7
20260503180100 12 324 3.2 22.5 0.00 0.00 0.00 39 1011.7
20260503174547 12 297 4.8 11.3 0.00 0.00 0.00 39 1011.7
20260503173050 12 284 3.2 14.5 0.00 0.00 0.00 40 1011.8
20260503171550 12 347 3.2 12.9 0.00 0.00 0.00 40 1011.8
20260503110107 7 301 1.6 9.7 0.00 0.00 0.00 57 1011.8
20260503081550 8 329 0.0 4.8 0.00 0.00 0.00 54 1010.2
20260503071605 8 0 0.0 1.6 0.00 0.00 0.00 50 1010.1
20260503060108 10 0 0.0 1.6 0.00 0.00 0.00 50 1010.2
20260503054556 10 309 0.0 3.2 0.00 0.00 0.00 48 1010.3
20260503053048 10 295 0.0 4.8 0.00 0.00 0.00 47 1010.2
20260503051544 10 297 0.0 6.4 0.00 0.00 0.00 47 1010.3
20260503050048 10 312 0.0 4.8 0.00 0.00 0.00 46 1010.6
20260503044543 10 42 0.0 3.2 0.00 0.00 0.00 46 1010.7
20260503043049 10 311 0.0 3.2 0.00 0.00 0.00 47 1010.9
20260503041545 11 0 0.0 1.6 0.00 0.00 0.00 47 1010.8
20260503040059 11 329 0.0 3.2 0.00 0.00 0.00 45 1010.8
20260503034550 11 0 0.0 3.2 0.00 0.00 0.00 46 1010.7
20260503033042 11 0 0.0 3.2 0.00 0.00 0.00 46 1010.6
20260503031601 11 0 0.0 1.6 0.00 0.00 0.00 47 1010.8
20260503030052 11 20 0.0 4.8 0.00 0.00 0.00 47 1010.7
20260503024546 11 291 0.0 4.8 0.00 0.00 0.00 45 1010.8
20260503023050 12 0 0.0 3.2 0.00 0.00 0.00 45 1010.9
20260503021548 12 0 0.0 4.8 0.00 0.00 0.00 45 1010.6
20260503020045 12 0 0.0 3.2 0.00 0.00 0.00 43 1010.7
20260503014605 12 0 1.6 6.4 0.00 0.00 0.00 42 1010.7
20260503013044 12 32 0.0 1.6 0.00 0.00 0.00 47 1010.8
20260503011554 12 0 0.0 3.2 0.00 0.00 0.00 46 1010.7
20260503010048 11 0 0.0 3.2 0.00 0.00 0.00 50 1010.5
20260503004548 12 0 0.0 0.0 0.00 0.00 0.00 52 1010.3
20260503003048 12 0 0.0 0.0 0.00 0.00 0.00 49 1010.2
20260503001555 12 0 0.0 3.2 0.00 0.00 0.00 44 1010.1
20260503000048 13 0 0.0 0.0 0.00 0.00 0.00 45 1010.0
20260502234544 13 0 0.0 3.2 0.00 0.00 0.00 44 1010.0
20260502233052 13 0 0.0 1.6 0.00 0.00 0.00 46 1010.1
20260502231547 14 0 0.0 3.2 0.00 0.00 0.00 44 1010.1
20260502230049 14 0 0.0 3.2 0.00 0.00 0.00 41 1010.0
20260502224547 14 0 0.0 4.8 0.00 0.00 0.00 42 1009.8
20260502223053 15 0 0.0 3.2 0.00 0.00 0.00 40 1009.8
20260502221548 15 274 3.2 11.3 0.00 0.00 0.00 38 1009.7